Voltar ao catálogo

SL-16 R/B

AtivoLEO
NORAD 23405·ROCKET BODY·🇷🇺 Russia

Lançado Nov 24, 1994 de Baikonur Cosmodrome

Loading…

Próximas Passagens (próximas 24 horas)

TLE

AtualizadoSource: Space-Track

Época: Sep 14, 2026, 20:43 UTC

1 23405U 94077B   26257.86343382 -.00000164  00000-0 -59081-4 0  9990
2 23405  70.9833 314.4969 0004763 253.4436 106.6164 14.15579917643005

Acompanhe SL-16 R/B em tempo real com AllMySat

Download on the App Store